• In Belarus
  • List of Countries
  • For 7 days
  • Water Temperature
  • Satellite Maps
  • Weather Map
  • Weather Widgets
  • user-avatar
    Login

    Hourly Weather Barisal

    Today, 26 May, Saturday

    Time Temperature Precipitation Wind Pressure Humidity
    00:00 +32°C° 0 mm 4 mps 753 mmHg 79%
    01:00 +32°C° 0 mm 4 mps 752 mmHg 80%
    02:00 +32°C° 0 mm 4 mps 752 mmHg 81%
    03:00 +30°C° 0 mm 4 mps 752 mmHg 82%
    04:00 +30°C° 0 mm 4 mps 752 mmHg 83%
    05:00 +30°C° 0 mm 4 mps 753 mmHg 83%
    06:00 +30°C° 0 mm 2 mps 753 mmHg 85%
    07:00 +31°C° 0 mm 2 mps 753 mmHg 79%
    08:00 +33°C° 0 mm 3 mps 754 mmHg 74%
    09:00 +35°C° 0 mm 4 mps 754 mmHg 68%
    10:00 +36°C° 0 mm 4 mps 753 mmHg 62%
    11:00 +37°C° 0 mm 4 mps 753 mmHg 57%
    12:00 +39°C° 0 mm 5 mps 753 mmHg 54%
    13:00 +39°C° 0 mm 5 mps 753 mmHg 52%
    14:00 +39°C° 0 mm 6 mps 752 mmHg 51%
    15:00 +39°C° 0 mm 6 mps 752 mmHg 50%
    16:00 +38°C° 0 mm 6 mps 752 mmHg 54%
    17:00 +36°C° 0 mm 5 mps 752 mmHg 57%
    18:00 +35°C° 0 mm 5 mps 752 mmHg 61%
    19:00 +34°C° 0 mm 5 mps 752 mmHg 66%
    20:00 +33°C° 0 mm 5 mps 753 mmHg 70%
    21:00 +33°C° 0 mm 5 mps 753 mmHg 75%
    22:00 +32°C° 0 mm 5 mps 753 mmHg 77%
    23:00 +32°C° 0 mm 5 mps 753 mmHg 78%

    Tomorrow, 27 May, Sunday

    Time Temperature Precipitation Wind Pressure Humidity
    00:00 +32°C° 0 mm 5 mps 753 mmHg 80%
    01:00 +32°C° 0 mm 5 mps 753 mmHg 81%
    02:00 +32°C° 0 mm 4 mps 753 mmHg 82%
    03:00 +30°C° 0 mm 4 mps 753 mmHg 83%
    04:00 +30°C° 0 mm 4 mps 753 mmHg 83%
    05:00 +30°C° 0 mm 3 mps 753 mmHg 83%
    06:00 +30°C° 0 mm 3 mps 753 mmHg 83%
    07:00 +33°C° 0 mm 3 mps 754 mmHg 75%
    08:00 +34°C° 0 mm 4 mps 754 mmHg 66%
    09:00 +36°C° 0 mm 4 mps 754 mmHg 58%
    10:00 +37°C° 0 mm 4 mps 754 mmHg 54%
    11:00 +38°C° 0 mm 4 mps 754 mmHg 51%
    12:00 +40°C° 0 mm 4 mps 754 mmHg 47%
    13:00 +40°C° 0 mm 4 mps 753 mmHg 47%
    14:00 +40°C° 0 mm 4 mps 752 mmHg 47%
    15:00 +40°C° 0 mm 4 mps 752 mmHg 47%
    16:00 +38°C° 0 mm 4 mps 751 mmHg 51%
    17:00 +37°C° 0 mm 5 mps 751 mmHg 55%
    18:00 +36°C° 0 mm 5 mps 751 mmHg 58%
    19:00 +35°C° 0 mm 4 mps 751 mmHg 63%
    20:00 +34°C° 0 mm 4 mps 752 mmHg 69%
    21:00 +33°C° 0 mm 4 mps 752 mmHg 74%
    22:00 +32°C° 0 mm 4 mps 752 mmHg 76%
    23:00 +32°C° 0 mm 4 mps 752 mmHg 77%

    Day after tomorrow, 28 May, Monday

    Time Temperature Precipitation Wind Pressure Humidity
    00:00 +32°C° 0 mm 4 mps 752 mmHg 79%
    01:00 +30°C° 0 mm 4 mps 752 mmHg 80%
    02:00 +30°C° 0 mm 4 mps 751 mmHg 81%
    03:00 +30°C° 0 mm 4 mps 751 mmHg 83%
    04:00 +30°C° 0 mm 3 mps 751 mmHg 83%
    05:00 +30°C° 0 mm 3 mps 752 mmHg 84%
    06:00 +30°C° 0 mm 2 mps 752 mmHg 85%
    07:00 +31°C° 0 mm 3 mps 752 mmHg 76%
    08:00 +34°C° 0 mm 3 mps 753 mmHg 67%
    09:00 +36°C° 0 mm 3 mps 753 mmHg 58%
    10:00 +37°C° 0 mm 3 mps 753 mmHg 54%
    11:00 +38°C° 0 mm 3 mps 752 mmHg 49%
    12:00 +39°C° 0 mm 3 mps 752 mmHg 44%
    13:00 +39°C° 0 mm 3 mps 751 mmHg 43%
    14:00 +40°C° 0 mm 3 mps 750 mmHg 41%
    15:00 +41°C° 0 mm 4 mps 749 mmHg 40%
    16:00 +40°C° 0 mm 4 mps 749 mmHg 45%
    17:00 +38°C° 0 mm 4 mps 748 mmHg 49%
    18:00 +37°C° 0 mm 4 mps 748 mmHg 54%
    19:00 +36°C° 0 mm 4 mps 749 mmHg 57%
    20:00 +35°C° 0 mm 4 mps 749 mmHg 61%
    21:00 +34°C° 0 mm 3 mps 750 mmHg 64%
    22:00 +33°C° 0 mm 3 mps 750 mmHg 66%
    23:00 +33°C° 0 mm 3 mps 750 mmHg 68%

    29 May, Tuesday

    Time Temperature Precipitation Wind Pressure Humidity
    00:00 +31°C° 0 mm 3 mps 750 mmHg 70%
    01:00 +31°C° 0 mm 3 mps 750 mmHg 72%
    02:00 +31°C° 0 mm 2 mps 749 mmHg 74%
    03:00 +30°C° 0 mm 2 mps 748 mmHg 76%
    04:00 +30°C° 0 mm 2 mps 748 mmHg 76%
    05:00 +30°C° 0 mm 2 mps 748 mmHg 76%
    06:00 +30°C° 0 mm 2 mps 749 mmHg 77%
    07:00 +33°C° 0 mm 3 mps 749 mmHg 69%
    08:00 +35°C° 0 mm 4 mps 749 mmHg 62%
    09:00 +36°C° 0 mm 5 mps 750 mmHg 54%
    10:00 +38°C° 0 mm 4 mps 749 mmHg 50%
    11:00 +40°C° 0 mm 4 mps 749 mmHg 45%
    12:00 +41°C° 0 mm 4 mps 749 mmHg 41%
    13:00 +42°C° 0 mm 4 mps 748 mmHg 38%
    14:00 +42°C° 0 mm 4 mps 747 mmHg 36%
    15:00 +43°C° 0 mm 4 mps 747 mmHg 34%
    16:00 +42°C° 0 mm 4 mps 747 mmHg 37%
    17:00 +41°C° 0 mm 4 mps 747 mmHg 40%
    18:00 +40°C° 0 mm 4 mps 747 mmHg 43%
    19:00 +37°C° 0 mm 4 mps 748 mmHg 50%
    20:00 +36°C° 0 mm 5 mps 749 mmHg 58%
    21:00 +34°C° 0 mm 6 mps 749 mmHg 65%
    22:00 +34°C° 0.1 mm 6 mps 750 mmHg 66%
    23:00 +33°C° 0.1 mm 6 mps 750 mmHg 68%

    30 May, Wednesday

    Time Temperature Precipitation Wind Pressure Humidity
    00:00 +33°C° 0.1 mm 6 mps 751 mmHg 69%
    01:00 +33°C° 0.2 mm 5 mps 750 mmHg 71%
    02:00 +32°C° 0.2 mm 5 mps 750 mmHg 72%
    03:00 +32°C° 0.2 mm 4 mps 750 mmHg 73%
    04:00 +31°C° 0.1 mm 3 mps 750 mmHg 74%
    05:00 +31°C° 0.1 mm 3 mps 751 mmHg 75%
    06:00 +31°C° 0.1 mm 2 mps 751 mmHg 76%
    07:00 +32°C° 0 mm 2 mps 751 mmHg 70%
    08:00 +34°C° 0 mm 2 mps 752 mmHg 64%
    09:00 +36°C° 0 mm 2 mps 752 mmHg 58%
    10:00 +37°C° 0 mm 2 mps 752 mmHg 53%
    11:00 +38°C° 0 mm 3 mps 751 mmHg 48%
    12:00 +40°C° 0 mm 3 mps 751 mmHg 44%
    13:00 +40°C° 0.2 mm 4 mps 751 mmHg 47%
    14:00 +39°C° 0.2 mm 5 mps 750 mmHg 51%
    15:00 +38°C° 0.2 mm 6 mps 750 mmHg 54%
    16:00 +36°C° 0.1 mm 6 mps 750 mmHg 58%
    17:00 +35°C° 0.1 mm 5 mps 750 mmHg 62%
    18:00 +34°C° 0.1 mm 5 mps 750 mmHg 65%
    19:00 +34°C° 0 mm 5 mps 751 mmHg 68%
    20:00 +33°C° 0 mm 5 mps 751 mmHg 71%
    21:00 +33°C° 0 mm 5 mps 752 mmHg 75%
    22:00 +33°C° 0 mm 5 mps 752 mmHg 74%
    23:00 +32°C° 0 mm 5 mps 753 mmHg 74%

    31 May, Thursday

    Time Temperature Precipitation Wind Pressure Humidity
    00:00 +32°C° 0 mm 5 mps 753 mmHg 74%
    01:00 +32°C° 0 mm 4 mps 752 mmHg 76%
    02:00 +32°C° 0 mm 4 mps 752 mmHg 78%
    03:00 +30°C° 0 mm 4 mps 751 mmHg 80%
    04:00 +30°C° 0 mm 4 mps 752 mmHg 80%
    05:00 +30°C° 0 mm 4 mps 752 mmHg 81%
    06:00 +30°C° 0 mm 4 mps 752 mmHg 81%
    07:00 +32°C° 0 mm 4 mps 753 mmHg 74%
    08:00 +34°C° 0 mm 4 mps 753 mmHg 68%
    09:00 +35°C° 0 mm 4 mps 754 mmHg 61%
    10:00 +36°C° 0.1 mm 5 mps 753 mmHg 58%
    11:00 +36°C° 0.1 mm 5 mps 753 mmHg 55%
    12:00 +37°C° 0.1 mm 5 mps 753 mmHg 53%
    13:00 +37°C° 0.8 mm 5 mps 752 mmHg 53%
    14:00 +37°C° 0.8 mm 5 mps 752 mmHg 54%
    15:00 +37°C° 0.8 mm 4 mps 751 mmHg 54%
    16:00 +36°C° 0 mm 4 mps 751 mmHg 57%
    17:00 +35°C° 0 mm 4 mps 751 mmHg 60%
    18:00 +34°C° 0 mm 5 mps 751 mmHg 63%
    19:00 +34°C° 0 mm 5 mps 751 mmHg 65%
    20:00 +33°C° 0 mm 5 mps 751 mmHg 67%
    21:00 +32°C° 0 mm 5 mps 751 mmHg 69%
    22:00 +32°C° 0.5 mm 5 mps 752 mmHg 69%
    23:00 +32°C° 0.5 mm 4 mps 752 mmHg 70%
    Show more